Location: Unspecified
(49.8670°N, 0.0000°E)
Time: 17:01:19
(UTC+00:00)

S-56A Canister/Altair - Pass Details

Date: 22 June 2019
Orbit: 632 x 2500 km, 38.9° (Epoch: 21 July)

Event Time Altitude Azimuth Distance (km) Brightness Sun altitude
Rises 19:44:20 0° 263° (W) 3,940 12.0 2.8°
Reaches altitude 10° 19:48:06 10° 249° (WSW) 2,670 10.8 2.3°
Maximum altitude 19:52:26 20° 203° (SSW) 1,744 9.3 1.7°
Drops below altitude 10° 19:56:01 10° 155° (SSE) 2,153 9.3 1.3°
Sets 19:58:40 0° 138° (SE) 2,965 9.9 0.9°
